Other Public Products
Issued by NWS Grand Forks, ND

Home | Current Version | Previous Version | Graphics & Text | Print | Product List | Glossary On
Versions: 1 2 3 4 5 6 7 8 9 10 11 12 13 14 15 16 17 18 19 20 21 22 23 24 25 26 27 28 29 30 31 32 33 34 35 36 37 38 39 40 41 42 43 44 45 46 47 48 49 50
000
FPUS83 KFGF 211610
OPUFGF
PRAIRIE TO PINES WEATHER ROUNDUP
NATIONAL WEATHER SERVICE EASTERN NORTH DAKOTA/GRAND FORKS ND
1100 AM CDT TUE OCT 21 2014

 **SATELLITE DATA USED TO AUGMENT SKY COVER AT AUTOMATED STATIONS**
 *****  WEATHER ACROSS EASTERN NORTH DAKOTA  *****

CITY           SKY/WX    TMP DP  RH WIND       PRES   REMARKS
GRAND FORKS    SUNNY     50  41  71 S17G28    29.99F
GRAND FORKS AF SUNNY     49  43  79 S16G23    29.98F
GRAND CITY NWS   N/A     50 N/A N/A S18         N/A
BUXTON         NOT AVBL
DEVILS LAKE    SUNNY     55  37  50 SE18G26   29.87F
FARGO          SUNNY     55  41  59 SE18G32   29.99F
WAHPETON ARPT  SUNNY     52  37  58 SE20G26   30.03F
$$

 *****  WEATHER ACROSS CENTRAL AND WESTERN NORTH DAKOTA  *****

CITY           SKY/WX    TMP DP  RH WIND       PRES   REMARKS
JAMESTOWN      SUNNY     58  39  49 SE20G32   29.88F
BISMARCK       SUNNY     59  40  49 SE15      29.81F
MINOT          SUNNY     58  37  45 SE10      29.77F
MINOT AFB      SUNNY     54  42  62 S10       29.76F
GARRISON         N/A     56  38  50 S14       29.77F
WILLISTON      SUNNY     55  39  54 SE7       29.71F
DICKINSON      SUNNY     54  41  61 SE9       29.72F
HETTINGER      SUNNY     56  41  57 SE8       29.76F
$$

 *****  OTHER OBSERVATIONS NORTHEAST NORTH DAKOTA  *****

CITY           SKY/WX    TMP DP  RH WIND       PRES   REMARKS
WALHALLA         N/A     46  43  87 SE15      29.95F
LANGDON        FAIR      54  39  58 S20       29.91F
CAVALIER       FAIR      46  39  76 S16G24    29.97F
GRAFTON        FAIR      48  41  76 S18G25    29.99S
CANDO          FAIR      54  41  62 SE15G21   29.88F
FORT TOTTEN    NOT AVBL
ROLLA          FAIR      52  39  62 S14G23    29.87F
RUGBY          FAIR      55  39  54 SE16G23   29.83F
 ***** THE ABOVE OBSERVATIONS ARE NON NWS ARE NOT QUALITY
        CONTROLLED AND MAY MIS-REPORT RAIN FOR SNOW...
$$

 *****  OTHER OBSERVATIONS SOUTHEAST NORTH DAKOTA *****

CITY           SKY/WX    TMP DP  RH WIND       PRES   REMARKS
COOPERSTOWN    NOT AVBL
VALLEY CITY    FAIR      52  41  66 SE13G22   29.94F
OAKES            N/A     61  43  51 SE20G25   29.92F
GWINNER        SUNNY     52  39  62 SE17      29.96F
BUFFALO        NOT AVBL
WYNDMERE         N/A     54  41  62 SE14        N/A
 ***** THE ABOVE OBSERVATIONS ARE NON NWS ARE NOT QUALITY
       CONTROLLED AND MAY MIS-REPORT RAIN FOR SNOW...
$$

  *****  WEATHER ACROSS NORTHERN MINNESOTA  *****

CITY           SKY/WX    TMP DP  RH WIND       PRES   REMARKS
FLAG ISLAND    SUNNY     45  37  76 S21       30.11S
WARROAD        SUNNY     46  41  81 SE10G16   30.10F
ROSEAU         SUNNY     48  41  76 SE15G21   30.07F
HALLOCK        SUNNY     52  43  71 S21G26    29.99F
THF RVR FALLS  SUNNY     48  39  71 SE15G22   30.04F
HALSTAD          N/A     55  39  55 SE24        N/A
FOSSTON        SUNNY     50  39  66 SE13G22   30.07F
BAUDETTE       SUNNY     46  38  73 SE10G22   30.13S
WASKISH        SUNNY     46  43  87 SE14      30.13F
CROOKSTON      SUNNY     54  43  66 S18       30.02F
$$
  *****  WEATHER ACROSS CENTRAL AND WEST MINNESOTA  *****

CITY           SKY/WX    TMP DP  RH WIND       PRES   REMARKS
BEMIDJI        SUNNY     47  39  74 S21       30.12S
PARK RAPIDS    SUNNY     48  38  68 SE18      30.12F
WADENA         SUNNY     46  39  76 SE13G20   30.11F
DETROIT LAKES  SUNNY     48  41  76 SE16G23   30.07F
MOORHEAD       SUNNY     55  45  67 SE22      30.02F
FERGUS FALLS   SUNNY     54  37  54 SE21      30.07S
ELBOW LAKE       N/A    N/A N/A N/A MISG        N/A
MORRIS MN      SUNNY     54  43  66 SE18G24   30.07S
STAPLES        SUNNY     46  37  71 SE13G20   30.14S
WHEATON        SUNNY     52  39  62 SE17G23   30.05S
$$
  *****  WEATHER ELSEWHERE ACROSS MINNESOTA  *****

CITY           SKY/WX    TMP DP  RH WIND       PRES   REMARKS
DULUTH         CLOUDY    42  34  73 E14       30.24R
INTRNTL FALLS  MOSUNNY   46  36  68 SE14G21   30.18F
ELY            CLOUDY    37  34  87 S8        30.25R
CLOQUET        CLOUDY    43  34  70 E9        30.23F
BRAINERD       SUNNY     47  38  71 SE17      30.17F
HIBBING        CLOUDY    43  35  73 SE13      30.22S
ALEXANDRIA     SUNNY     50  41  71 SE17G23   30.12F
SAINT CLOUD    SUNNY     52  39  61 SE13G22   30.17F
MINNEAPOLIS    SUNNY     48  37  65 SE17      30.20F
$$

  *****  WEATHER ACROSS SOUTH DAKOTA  *****

CITY           SKY/WX    TMP DP  RH WIND       PRES   REMARKS
SIOUX FALLS    SUNNY     61  42  49 SE12      30.06F
BROOKINGS      NOT AVBL
WATERTOWN      SUNNY     60  40  47 SE13G21   30.00F
HURON          SUNNY     62  40  44 S14G22    29.96F
SISSETON         N/A     50  40  68 S13       30.01F
ABERDEEN       SUNNY     63  40  42 S21G31    29.92F
MITCHELL       SUNNY     63  42  46 S14       29.99F
PIERRE         SUNNY     66  43  43 SE13      29.85F
MOBRIDGE       SUNNY     64  44  48 S20       29.80F
RAPID CITY     SUNNY     64  43  46 SE8       29.83F
$$

  *****  SOME WEATHER IN NEARBY STATES *****

CITY           SKY/WX    TMP DP  RH WIND       PRES   REMARKS
GLASGOW MT     MOSUNNY   55  42  61 SE14      29.64F
GREAT FALLS MT CLOUDY    54  36  50 N5        29.67R
CHEYENNE WY    MOSUNNY   67  37  33 W16       30.05S
SCOTTSBLUFF NE MOSUNNY   59  44  57 CALM      29.97F
OMAHA NE       SUNNY     58  45  62 S5        30.13F
DES MOINES IA  SUNNY     57  44  62 E7        30.16S
DAVENPORT IA   SUNNY     53  39  59 NE12      30.21R
CHICAGO IL     PTSUNNY   50  40  68 N15       30.17R
EAU CLAIRE WI  PTSUNNY   46  36  68 E7        30.24R
LA CROSSE WI   SUNNY     49  38  65 E7        30.24R
$$

  *****  SOME NATIONAL WEATHER *****

CITY           SKY/WX    TMP DP  RH WIND       PRES   REMARKS
LA GUARDIA NY  PTSUNNY   65  48  54 SE10      29.88S
RALEIGH NC     MOSUNNY   69  49  48 NW7       29.92F
ATLANTA GA     SUNNY     69  52  54 NW8       30.04S
NEW ORLEANS LA MOSUNNY   74  54  49 NE13      30.06S
OKLAHOMA CITY  MOSUNNY   75  59  57 SW8       30.11R
ALBUQUERQUE NM MOSUNNY   56  48  74 SW7       30.17S
SALT LAKE CITY MOSUNNY   69  40  34 S18G25    29.91R
LOS ANGELES CA MOSUNNY   66  61  84 SE3       29.93R HAZE
BOISE ID       LGT RAIN  48  45  89 S7        29.99R
SEATTLE WA     PTSUNNY   55  50  83 S10       29.91R
$$

*** WEATHER ACROSS MANITOBA...SASKATCHEWAN AND ONTARIO ***
                ***ONTARIO***

CITY           SKY/WX    TMP DP  RH WIND       PRES   REMARKS
GERALDTON      PTSUNNY   32  28  86 E7        30.31S
THUNDER BAY    CLOUDY    39  32  75 CALM      30.33R
SIOUX LOOKOUT  CLOUDY    37  32  81 S13       30.22R
TORONTO        NOT AVBL
BIG TROUT LK   CLOUDY    37  34  87 S15G26    30.11F
PICKLE LAKE    CLOUDY    36  30  80 S12G18    30.22S
DRYDEN         CLOUDY    39  34  81 S10G18    30.18F
KENORA         MOSUNNY   45  36  70 S15       30.13F
$$
                *** MANITOBA***

CITY           SKY/WX    TMP DP  RH WIND       PRES   REMARKS
BRANDON        SUNNY     55  41  58 SE15G21   29.85F
DAUPHIN        SUNNY     64  37  36 S9G17     29.78F
ISLAND LAKE    MOSUNNY   45  37  76 S15G22    29.94F
PILOT MOUND      N/A     55  39  54 S18         N/A
THE PAS        MOSUNNY   48  43  81 S14       29.64S
THOMPSON       MOSUNNY   46  43  87 S9        29.70S
WINNIPEG       SUNNY     48  39  71 S20G28    29.99S
LYNN LAKE      CLOUDY    41  41 100 S9        29.58F
CHURCHILL      CLOUDY    37  36  93 SW10      29.69F
GILLAM         MOSUNNY   45  37  76 S17G26    29.77F
$$
                ***SASKATCHEWAN***

CITY           SKY/WX    TMP DP  RH WIND       PRES   REMARKS
ESTEVAN        MOSUNNY   52  39  62 E8        29.73F
KINDERSLEY     NOT AVBL
LLOYDMINSTER   PTSUNNY   46  37  71 W9        29.55R
PRINCE ALBERT  NOT AVBL
REGINA         SUNNY     50  43  76 SE14      29.67F
YORKTON        SUNNY     52  37  58 S16G22    29.70F



USA.gov is the U.S. government's official web portal to all federal, state and local government web resources and services.